| time (UTC) | temp C | wind direction | speed KPH | gust KPH | rain 1hr cm | rain 24hr cm | rain mn cm | humidity % | barometer mb |
| 20260505231349 | 12 | 331 | 4.8 | 14.5 | 0.00 | 0.00 | 0.00 | 51 | |
| 20260505230849 | 12 | 306 | 1.6 | 11.3 | 0.00 | 0.00 | 0.00 | 52 | |
| 20260505230349 | 12 | 243 | 4.8 | 19.3 | 0.00 | 0.00 | 0.00 | 51 | |
| 20260505225849 | 12 | 230 | 1.6 | 12.9 | 0.00 | 0.00 | 0.00 | 52 | |
| 20260505225349 | 13 | 47 | 3.2 | 14.5 | 0.00 | 0.00 | 0.00 | 53 | |
| 20260505224849 | 13 | 21 | 8.0 | 14.5 | 0.00 | 0.00 | 0.00 | 50 | |
| 20260505224349 | 13 | 268 | 1.6 | 20.9 | 0.00 | 0.00 | 0.00 | 46 | |
| 20260505223849 | 13 | 258 | 6.4 | 14.5 | 0.00 | 0.00 | 0.00 | 46 | |
| 20260505223349 | 13 | 282 | 4.8 | 17.7 | 0.00 | 0.00 | 0.00 | 45 | |
| 20260505222849 | 13 | 255 | 6.4 | 12.9 | 0.00 | 0.00 | 0.00 | 44 | |
| 20260505222349 | 14 | 274 | 1.6 | 11.3 | 0.00 | 0.00 | 0.00 | 45 | |
| 20260505221849 | 14 | 295 | 3.2 | 19.3 | 0.00 | 0.00 | 0.00 | 46 | |
| 20260505221349 | 14 | 2 | 6.4 | 16.1 | 0.00 | 0.00 | 0.00 | 46 | |
| 20260505220849 | 13 | 185 | 1.6 | 14.5 | 0.00 | 0.00 | 0.00 | 46 | |
| 20260505220349 | 13 | 2 | 3.2 | 12.9 | 0.00 | 0.00 | 0.00 | 47 | |
| 20260505215849 | 13 | 305 | 1.6 | 12.9 | 0.00 | 0.00 | 0.00 | 47 | |
| 20260505215349 | 13 | 295 | 6.4 | 22.5 | 0.00 | 0.00 | 0.00 | 46 | |
| 20260505214849 | 13 | 78 | 8.0 | 20.9 | 0.00 | 0.00 | 0.00 | 45 | |
| 20260505214349 | 14 | 262 | 9.7 | 16.1 | 0.00 | 0.00 | 0.00 | 44 | |
| 20260505213849 | 15 | 286 | 8.0 | 29.0 | 0.00 | 0.00 | 0.00 | 42 | |
| 20260505213349 | 15 | 258 | 8.0 | 19.3 | 0.00 | 0.00 | 0.00 | 44 | |
| 20260505212849 | 15 | 210 | 1.6 | 19.3 | 0.00 | 0.00 | 0.00 | 44 | |
| 20260505212349 | 15 | 45 | 0.0 | 14.5 | 0.00 | 0.00 | 0.00 | 45 | |
| 20260505211849 | 14 | 310 | 4.8 | 14.5 | 0.00 | 0.00 | 0.00 | 46 | |
| 20260505211349 | 15 | 254 | 14.5 | 17.7 | 0.00 | 0.00 | 0.00 | 45 | |
| 20260505210849 | 14 | 30 | 8.0 | 24.1 | 0.00 | 0.00 | 0.00 | 44 | |
| 20260505210349 | 15 | 286 | 8.0 | 24.1 | 0.00 | 0.00 | 0.00 | 45 | |
| 20260505205849 | 15 | 222 | 4.8 | 24.1 | 0.00 | 0.00 | 0.00 | 46 | |
| 20260505205349 | 15 | 320 | 9.7 | 22.5 | 0.00 | 0.00 | 0.00 | 45 | |
| 20260505204849 | 15 | 219 | 3.2 | 17.7 | 0.00 | 0.00 | 0.00 | 43 | |
| 20260505204349 | 15 | 336 | 16.1 | 17.7 | 0.00 | 0.00 | 0.00 | 45 | |
| 20260505203849 | 14 | 21 | 6.4 | 25.7 | 0.00 | 0.00 | 0.00 | 46 | |
| 20260505203349 | 14 | 255 | 20.9 | 20.9 | 0.00 | 0.00 | 0.00 | 45 | |
| 20260505202849 | 15 | 5 | 8.0 | 16.1 | 0.00 | 0.00 | 0.00 | 45 | |
| 20260505202349 | 14 | 118 | 11.3 | 17.7 | 0.00 | 0.00 | 0.00 | 46 | |
| 20260505201849 | 14 | 358 | 4.8 | 11.3 | 0.00 | 0.00 | 0.00 | 45 | |
| 20260505201349 | 14 | 16 | 1.6 | 22.5 | 0.00 | 0.00 | 0.00 | 45 | |
| 20260505200849 | 15 | 67 | 11.3 | 14.5 | 0.00 | 0.00 | 0.00 | 44 | |
| 20260505200349 | 14 | 88 | 6.4 | 20.9 | 0.00 | 0.00 | 0.00 | 44 | |
| 20260505195849 | 15 | 255 | 4.8 | 11.3 | 0.00 | 0.00 | 0.00 | 44 | |
| 20260505195349 | 14 | 78 | 6.4 | 12.9 | 0.00 | 0.00 | 0.00 | 44 | |
| 20260505194849 | 14 | 313 | 0.0 | 4.8 | 0.00 | 0.00 | 0.00 | 46 | |
| 20260505194349 | 13 | 239 | 0.0 | 11.3 | 0.00 | 0.00 | 0.00 | 46 | |
| 20260505193849 | 13 | 310 | 1.6 | 9.7 | 0.00 | 0.00 | 0.00 | 46 | |
| 20260505193349 | 13 | 5 | 1.6 | 16.1 | 0.00 | 0.00 | 0.00 | 47 | |
| 20260505192849 | 13 | 267 | 0.0 | 12.9 | 0.00 | 0.00 | 0.00 | 46 | |
| 20260505192349 | 13 | 250 | 8.0 | 14.5 | 0.00 | 0.00 | 0.00 | 46 | |
| 20260505191849 | 13 | 5 | 9.7 | 19.3 | 0.00 | 0.00 | 0.00 | 45 | |
| 20260505191349 | 14 | 143 | 12.9 | 17.7 | 0.00 | 0.00 | 0.00 | 44 | |
| 20260505190849 | 14 | 344 | 4.8 | 19.3 | 0.00 | 0.00 | 0.00 | 42 | |
| 20260505190349 | 15 | 253 | 0.0 | 16.1 | 0.00 | 0.00 | 0.00 | 41 | |
| 20260505185849 | 15 | 234 | 0.0 | 11.3 | 0.00 | 0.00 | 0.00 | 41 | |
| 20260505185349 | 15 | 341 | 1.6 | 12.9 | 0.00 | 0.00 | 0.00 | 41 | |
| 20260505184849 | 15 | 322 | 8.0 | 12.9 | 0.00 | 0.00 | 0.00 | 39 | |
| 20260505184349 | 16 | 52 | 1.6 | 11.3 | 0.00 | 0.00 | 0.00 | 38 | |
| 20260505183849 | 15 | 80 | 0.0 | 12.9 | 0.00 | 0.00 | 0.00 | 40 | |
| 20260505183349 | 15 | 340 | 3.2 | 14.5 | 0.00 | 0.00 | 0.00 | 40 | |
| 20260505182849 | 15 | 310 | 12.9 | 14.5 | 0.00 | 0.00 | 0.00 | 39 | |
| 20260505182349 | 16 | 267 | 8.0 | 16.1 | 0.00 | 0.00 | 0.00 | 40 | |
| 20260505181849 | 16 | 307 | 6.4 | 16.1 | 0.00 | 0.00 | 0.00 | 38 | |
| 20260505181349 | 16 | 288 | 4.8 | 22.5 | 0.00 | 0.00 | 0.00 | 39 | |
| 20260505180849 | 16 | 288 | 9.7 | 19.3 | 0.00 | 0.00 | 0.00 | 38 | |
| 20260505180349 | 16 | 196 | 1.6 | 14.5 | 0.00 | 0.00 | 0.00 | 39 | |
| 20260505175850 | 15 | 344 | 0.0 | 16.1 | 0.00 | 0.00 | 0.00 | 41 | |
| 20260505175350 | 15 | 292 | 4.8 | 16.1 | 0.00 | 0.00 | 0.00 | 41 | |
| 20260505174850 | 15 | 198 | 1.6 | 11.3 | 0.00 | 0.00 | 0.00 | 40 | |
| 20260505174350 | 15 | 189 | 0.0 | 11.3 | 0.00 | 0.00 | 0.00 | 41 | |
| 20260505173850 | 14 | 229 | 1.6 | 17.7 | 0.00 | 0.00 | 0.00 | 41 | |
| 20260505173350 | 15 | 299 | 1.6 | 11.3 | 0.00 | 0.00 | 0.00 | 40 | |
| 20260505172850 | 15 | 63 | 0.0 | 11.3 | 0.00 | 0.00 | 0.00 | 40 | |
| 20260505172350 | 15 | 180 | 6.4 | 16.1 | 0.00 | 0.00 | 0.00 | 40 | |
| 20260505171850 | 15 | 267 | 11.3 | 14.5 | 0.00 | 0.00 | 0.00 | 41 | |
| 20260505171350 | 15 | 16 | 4.8 | 16.1 | 0.00 | 0.00 | 0.00 | 39 | |
| 20260505170850 | 15 | 63 | 1.6 | 14.5 | 0.00 | 0.00 | 0.00 | 41 | |
| 20260505170350 | 14 | 322 | 0.0 | 17.7 | 0.00 | 0.00 | 0.00 | 40 | |
| 20260505165850 | 14 | 243 | 0.0 | 8.0 | 0.00 | 0.00 | 0.00 | 41 | |
| 20260505165350 | 13 | 77 | 4.8 | 14.5 | 0.00 | 0.00 | 0.00 | 42 | |
| 20260505164850 | 13 | 196 | 1.6 | 17.7 | 0.00 | 0.00 | 0.00 | 43 | |
| 20260505164350 | 13 | 350 | 6.4 | 9.7 | 0.00 | 0.00 | 0.00 | 43 | |
| 20260505163850 | 13 | 272 | 6.4 | 14.5 | 0.00 | 0.00 | 0.00 | 42 | |
| 20260505163350 | 13 | 338 | 12.9 | 12.9 | 0.00 | 0.00 | 0.00 | 42 | |
| 20260505162850 | 13 | 292 | 1.6 | 12.9 | 0.00 | 0.00 | 0.00 | 42 | |
| 20260505162350 | 13 | 288 | 3.2 | 8.0 | 0.00 | 0.00 | 0.00 | 42 | |
| 20260505161850 | 13 | 132 | 6.4 | 11.3 | 0.00 | 0.00 | 0.00 | 41 | |
| 20260505161350 | 13 | 258 | 3.2 | 12.9 | 0.00 | 0.00 | 0.00 | 41 | |
| 20260505160850 | 13 | 258 | 3.2 | 9.7 | 0.00 | 0.00 | 0.00 | 41 | |
| 20260505160350 | 13 | 268 | 3.2 | 17.7 | 0.00 | 0.00 | 0.00 | 41 | |
| 20260505153350 | 13 | 260 | 1.6 | 4.8 | 0.00 | 0.00 | 0.00 | 40 | |
| 20260505152850 | 13 | 35 | 0.0 | 8.0 | 0.00 | 0.00 | 0.00 | 41 | |
| 20260505152350 | 12 | 16 | 0.0 | 6.4 | 0.00 | 0.00 | 0.00 | 41 | |
| 20260505151850 | 12 | 323 | 0.0 | 8.0 | 0.00 | 0.00 | 0.00 | 40 | |
| 20260505151350 | 12 | 250 | 0.0 | 9.7 | 0.00 | 0.00 | 0.00 | 40 | |
| 20260505150850 | 12 | 8 | 0.0 | 11.3 | 0.00 | 0.00 | 0.00 | 39 | |
| 20260505150350 | 12 | 300 | 3.2 | 11.3 | 0.00 | 0.00 | 0.00 | 39 | |
| 20260505140350 | 7 | 330 | 0.0 | 0.0 | 0.00 | 0.00 | 0.00 | 60 | |
| 20260505124850 | 6 | 282 | 0.0 | 0.0 | 0.00 | 0.00 | 0.00 | 64 | |
| 20260505124350 | 6 | 282 | 0.0 | 4.8 | 0.00 | 0.00 | 0.00 | 63 | |
| 20260505123850 | 6 | 57 | 0.0 | 0.0 | 0.00 | 0.00 | 0.00 | 62 | |
| 20260505123350 | 6 | 57 | 0.0 | 0.0 | 0.00 | 0.00 | 0.00 | 63 | |
| 20260505122850 | 6 | 57 | 0.0 | 0.0 | 0.00 | 0.00 | 0.00 | 63 | |
| 20260505122350 | 6 | 57 | 0.0 | 0.0 | 0.00 | 0.00 | 0.00 | 64 | |
| 20260505121940 | 6 | 57 | 0.0 | 0.0 | 0.00 | 0.00 | 0.00 | 63 | |
| 20260505121850 | 6 | 57 | 0.0 | 0.0 | 0.00 | 0.00 | 0.00 | 63 | |
| 20260505121350 | 6 | 57 | 0.0 | 0.0 | 0.00 | 0.00 | 0.00 | 63 | |
| 20260505120850 | 6 | 57 | 0.0 | 0.0 | 0.00 | 0.00 | 0.00 | 62 | |
| 20260505120350 | 6 | 57 | 0.0 | 0.0 | 0.00 | 0.00 | 0.00 | 63 | |
| 20260505115850 | 6 | 57 | 0.0 | 0.0 | 0.00 | 0.00 | 0.00 | 60 | |
| 20260505115350 | 6 | 57 | 0.0 | 0.0 | 0.00 | 0.00 | 0.00 | 61 | |
| 20260505115010 | 6 | 57 | 0.0 | 0.0 | 0.00 | 0.00 | 0.00 | 60 | |
| 20260505114850 | 6 | 57 | 0.0 | 0.0 | 0.00 | 0.00 | 0.00 | 60 | |
| 20260505114350 | 6 | 57 | 0.0 | 0.0 | 0.00 | 0.00 | 0.00 | 61 | |
| 20260505113850 | 7 | 57 | 0.0 | 0.0 | 0.00 | 0.00 | 0.00 | 62 | |
| 20260505113350 | 7 | 57 | 0.0 | 0.0 | 0.00 | 0.00 | 0.00 | 61 | |
| 20260505112850 | 7 | 57 | 0.0 | 0.0 | 0.00 | 0.00 | 0.00 | 60 | |
| 20260505112350 | 7 | 57 | 0.0 | 0.0 | 0.00 | 0.00 | 0.00 | 59 | |
| 20260505111850 | 7 | 57 | 0.0 | 0.0 | 0.00 | 0.00 | 0.00 | 59 | |
| 20260505111350 | 7 | 57 | 0.0 | 0.0 | 0.00 | 0.00 | 0.00 | 58 | |
| 20260505110850 | 8 | 57 | 0.0 | 0.0 | 0.00 | 0.00 | 0.00 | 56 | |
| 20260505110350 | 8 | 57 | 0.0 | 0.0 | 0.00 | 0.00 | 0.00 | 56 | |
| 20260505101850 | 10 | 57 | 0.0 | 0.0 | 0.00 | 0.00 | 0.00 | 45 | |
| 20260505101350 | 11 | 57 | 0.0 | 0.0 | 0.00 | 0.00 | 0.00 | 42 | |
| 20260505101013 | 11 | 57 | 0.0 | 0.0 | 0.00 | 0.00 | 0.00 | 43 | |
| 20260505100933 | 11 | 57 | 0.0 | 0.0 | 0.00 | 0.00 | 0.00 | 43 | |
| 20260505100850 | 11 | 57 | 0.0 | 0.0 | 0.00 | 0.00 | 0.00 | 43 | |
| 20260505100350 | 11 | 57 | 0.0 | 4.8 | 0.00 | 0.00 | 0.00 | 42 | |
| 20260505100029 | 11 | 295 | 0.0 | 8.0 | 0.00 | 0.00 | 0.00 | 42 | |
| 20260505095850 | 11 | 295 | 0.0 | 8.0 | 0.00 | 0.00 | 0.00 | 42 | |
| 20260505095351 | 11 | 244 | 4.8 | 12.9 | 0.00 | 0.00 | 0.00 | 41 | |
| 20260505095001 | 11 | 354 | 0.0 | 0.0 | 0.00 | 0.00 | 0.00 | 40 | |
| 20260505094850 | 11 | 354 | 0.0 | 0.0 | 0.00 | 0.00 | 0.00 | 40 | |
| 20260505094353 | 12 | 354 | 0.0 | 3.2 | 0.00 | 0.00 | 0.00 | 40 | |
| 20260505093850 | 12 | 81 | 0.0 | 0.0 | 0.00 | 0.00 | 0.00 | 37 | |
| 20260505093350 | 12 | 81 | 0.0 | 12.9 | 0.00 | 0.00 | 0.00 | 35 | |
| 20260505092850 | 12 | 274 | 1.6 | 12.9 | 0.00 | 0.00 | 0.00 | 35 | |
| 20260505092350 | 12 | 227 | 11.3 | 16.1 | 0.00 | 0.00 | 0.00 | 34 | |
| 20260505091850 | 13 | 78 | 0.0 | 8.0 | 0.00 | 0.00 | 0.00 | 35 | |
| 20260505091350 | 13 | 175 | 3.2 | 9.7 | 0.00 | 0.00 | 0.00 | 35 | |
| 20260505090850 | 13 | 254 | 0.0 | 6.4 | 0.00 | 0.00 | 0.00 | 35 | |
| 20260505090431 | 13 | 319 | 0.0 | 4.8 | 0.00 | 0.00 | 0.00 | 35 | |
| 20260505090350 | 13 | 319 | 0.0 | 4.8 | 0.00 | 0.00 | 0.00 | 35 | |
| 20260505085850 | 13 | 210 | 0.0 | 8.0 | 0.00 | 0.00 | 0.00 | 35 | |
| 20260505085456 | 13 | 227 | 1.6 | 20.9 | 0.00 | 0.00 | 0.00 | 34 | |
| 20260505085350 | 13 | 227 | 1.6 | 20.9 | 0.00 | 0.00 | 0.00 | 34 | |
| 20260505084850 | 13 | 133 | 0.0 | 17.7 | 0.00 | 0.00 | 0.00 | 34 | |
| 20260505084350 | 13 | 288 | 0.0 | 9.7 | 0.00 | 0.00 | 0.00 | 33 | |
| 20260505083850 | 13 | 188 | 1.6 | 17.7 | 0.00 | 0.00 | 0.00 | 34 | |
| 20260505083350 | 13 | 264 | 9.7 | 9.7 | 0.00 | 0.00 | 0.00 | 33 | |
| 20260505083038 | 13 | 85 | 4.8 | 12.9 | 0.00 | 0.00 | 0.00 | 33 | |
| 20260505082850 | 13 | 85 | 4.8 | 12.9 | 0.00 | 0.00 | 0.00 | 33 | |
| 20260505082350 | 13 | 244 | 3.2 | 8.0 | 0.00 | 0.00 | 0.00 | 33 | |
| 20260505081850 | 13 | 289 | 1.6 | 17.7 | 0.00 | 0.00 | 0.00 | 33 | |
| 20260505081350 | 13 | 265 | 0.0 | 4.8 | 0.00 | 0.00 | 0.00 | 34 | |
| 20260505080851 | 13 | 310 | 4.8 | 16.1 | 0.00 | 0.00 | 0.00 | 33 | |
| 20260505080350 | 13 | 250 | 0.0 | 8.0 | 0.00 | 0.00 | 0.00 | 34 | |
| 20260505075851 | 13 | 105 | 0.0 | 9.7 | 0.00 | 0.00 | 0.00 | 34 | |
| 20260505075351 | 13 | 251 | 1.6 | 14.5 | 0.00 | 0.00 | 0.00 | 34 | |
| 20260505074850 | 13 | 302 | 3.2 | 16.1 | 0.00 | 0.00 | 0.00 | 34 | |
| 20260505074351 | 13 | 143 | 0.0 | 9.7 | 0.00 | 0.00 | 0.00 | 35 | |
| 20260505073851 | 13 | 105 | 0.0 | 16.1 | 0.00 | 0.00 | 0.00 | 35 | |
| 20260505073351 | 13 | 142 | 3.2 | 11.3 | 0.00 | 0.00 | 0.00 | 36 | |
| 20260505072851 | 13 | 130 | 0.0 | 0.0 | 0.00 | 0.00 | 0.00 | 38 | |
| 20260505072351 | 13 | 130 | 0.0 | 3.2 | 0.00 | 0.00 | 0.00 | 35 | |
| 20260505071851 | 13 | 147 | 3.2 | 12.9 | 0.00 | 0.00 | 0.00 | 35 | |
| 20260505071351 | 13 | 286 | 0.0 | 8.0 | 0.00 | 0.00 | 0.00 | 37 | |
| 20260505070851 | 13 | 42 | 0.0 | 9.7 | 0.00 | 0.00 | 0.00 | 37 | |
| 20260505070351 | 14 | 4 | 0.0 | 9.7 | 0.00 | 0.00 | 0.00 | 35 | |
| 20260505065851 | 14 | 208 | 8.0 | 16.1 | 0.00 | 0.00 | 0.00 | 34 | |
| 20260505065351 | 14 | 358 | 16.1 | 16.1 | 0.00 | 0.00 | 0.00 | 34 | |
| 20260505064851 | 14 | 358 | 3.2 | 12.9 | 0.00 | 0.00 | 0.00 | 34 | |
| 20260505064351 | 14 | 275 | 0.0 | 12.9 | 0.00 | 0.00 | 0.00 | 34 | |
| 20260505063851 | 14 | 230 | 4.8 | 14.5 | 0.00 | 0.00 | 0.00 | 34 | |
| 20260505063351 | 14 | 172 | 0.0 | 16.1 | 0.00 | 0.00 | 0.00 | 34 | |
| 20260505062851 | 14 | 220 | 9.7 | 22.5 | 0.00 | 0.00 | 0.00 | 34 | |
| 20260505062351 | 14 | 248 | 8.0 | 14.5 | 0.00 | 0.00 | 0.00 | 34 | |
| 20260505061851 | 14 | 268 | 8.0 | 19.3 | 0.00 | 0.00 | 0.00 | 33 | |
| 20260505061351 | 14 | 358 | 6.4 | 14.5 | 0.00 | 0.00 | 0.00 | 34 | |
| 20260505060851 | 14 | 9 | 3.2 | 17.7 | 0.00 | 0.00 | 0.00 | 34 | |
| 20260505060351 | 14 | 233 | 0.0 | 16.1 | 0.00 | 0.00 | 0.00 | 34 | |
| 20260505055851 | 14 | 203 | 4.8 | 22.5 | 0.00 | 0.00 | 0.00 | 34 | |
| 20260505055351 | 14 | 223 | 8.0 | 16.1 | 0.00 | 0.00 | 0.00 | 34 | |
| 20260505054851 | 15 | 309 | 0.0 | 11.3 | 0.00 | 0.00 | 0.00 | 34 | |
| 20260505054351 | 15 | 330 | 0.0 | 19.3 | 0.00 | 0.00 | 0.00 | 34 | |
| 20260505053851 | 14 | 295 | 4.8 | 16.1 | 0.00 | 0.00 | 0.00 | 34 | |
| 20260505053351 | 14 | 233 | 9.7 | 19.3 | 0.00 | 0.00 | 0.00 | 34 | |
| 20260505052922 | 15 | 248 | 9.7 | 17.7 | 0.00 | 0.00 | 0.00 | 34 | |
| 20260505052851 | 15 | 248 | 9.7 | 17.7 | 0.00 | 0.00 | 0.00 | 34 | |
| 20260505052351 | 15 | 68 | 4.8 | 16.1 | 0.00 | 0.00 | 0.00 | 33 | |
| 20260505051851 | 15 | 295 | 3.2 | 24.1 | 0.00 | 0.00 | 0.00 | 33 | |
| 20260505051351 | 15 | 205 | 4.8 | 24.1 | 0.00 | 0.00 | 0.00 | 33 | |
| 20260505050944 | 15 | 247 | 8.0 | 22.5 | 0.00 | 0.00 | 0.00 | 33 | |
| 20260505050851 | 15 | 247 | 8.0 | 22.5 | 0.00 | 0.00 | 0.00 | 33 | |
| 20260505050351 | 15 | 299 | 0.0 | 16.1 | 0.00 | 0.00 | 0.00 | 33 | |
| 20260505041351 | 15 | 315 | 12.9 | 20.9 | 0.00 | 0.00 | 0.00 | 29 | |
| 20260505040851 | 15 | 240 | 14.5 | 29.0 | 0.00 | 0.00 | 0.00 | 28 | |
| 20260505040351 | 15 | 279 | 0.0 | 24.1 | 0.00 | 0.00 | 0.00 | 28 | |
| 20260505035851 | 15 | 240 | 8.0 | 25.7 | 0.00 | 0.00 | 0.00 | 27 | |
| 20260505035826 | 16 | 302 | 3.2 | 11.3 | 0.00 | 0.00 | 0.00 | 22 | |
| 20260505035817 | 16 | 331 | 0.0 | 22.5 | 0.00 | 0.00 | 0.00 | 22 | |
| 20260505035807 | 16 | 246 | 0.0 | 9.7 | 0.00 | 0.00 | 0.00 | 22 | |
| 20260505035351 | 15 | 240 | 4.8 | 17.7 | 0.00 | 0.00 | 0.00 | 27 | |
| 20260505034851 | 15 | 268 | 11.3 | 27.4 | 0.00 | 0.00 | 0.00 | 27 | |
| 20260505034351 | 15 | 202 | 0.0 | 17.7 | 0.00 | 0.00 | 0.00 | 27 | |
| 20260505033851 | 15 | 213 | 9.7 | 24.1 | 0.00 | 0.00 | 0.00 | 26 | |
| 20260505033351 | 15 | 246 | 3.2 | 16.1 | 0.00 | 0.00 | 0.00 | 25 | |
| 20260505032851 | 15 | 247 | 1.6 | 19.3 | 0.00 | 0.00 | 0.00 | 25 | |
| 20260505032351 | 16 | 264 | 1.6 | 20.9 | 0.00 | 0.00 | 0.00 | 25 | |
| 20260505031851 | 16 | 250 | 4.8 | 27.4 | 0.00 | 0.00 | 0.00 | 25 | |
| 20260505031351 | 16 | 331 | 8.0 | 16.1 | 0.00 | 0.00 | 0.00 | 24 | |
| 20260505030851 | 16 | 171 | 4.8 | 11.3 | 0.00 | 0.00 | 0.00 | 24 | |
| 20260505030351 | 16 | 7 | 1.6 | 14.5 | 0.00 | 0.00 | 0.00 | 24 | |
| 20260505025851 | 16 | 281 | 6.4 | 12.9 | 0.00 | 0.00 | 0.00 | 23 | |
| 20260505025351 | 16 | 247 | 8.0 | 22.5 | 0.00 | 0.00 | 0.00 | 23 | |
| 20260505024851 | 16 | 312 | 3.2 | 17.7 | 0.00 | 0.00 | 0.00 | 23 | |
| 20260505024351 | 16 | 244 | 9.7 | 11.3 | 0.00 | 0.00 | 0.00 | 24 | |
| 20260505023851 | 16 | 227 | 8.0 | 22.5 | 0.00 | 0.00 | 0.00 | 22 | |
| 20260505023351 | 16 | 296 | 6.4 | 12.9 | 0.00 | 0.00 | 0.00 | 22 | |
| 20260505022851 | 16 | 344 | 0.0 | 25.7 | 0.00 | 0.00 | 0.00 | 23 | |
| 20260505022351 | 16 | 313 | 4.8 | 12.9 | 0.00 | 0.00 | 0.00 | 22 | |
| 20260505021851 | 16 | 302 | 3.2 | 11.3 | 0.00 | 0.00 | 0.00 | 22 | |
| 20260505021351 | 16 | 331 | 0.0 | 22.5 | 0.00 | 0.00 | 0.00 | 22 | |
| 20260505020851 | 16 | 246 | 0.0 | 9.7 | 0.00 | 0.00 | 0.00 | 22 | |
| 20260505020614 | 16 | 319 | 0.0 | 8.0 | 0.00 | 0.00 | 0.00 | 21 | |
| 20260505020351 | 16 | 226 | 4.8 | 11.3 | 0.00 | 0.00 | 0.00 | 21 | |
| 20260505015851 | 16 | 284 | 0.0 | 16.1 | 0.00 | 0.00 | 0.00 | 21 | |
| 20260505015351 | 16 | 319 | 0.0 | 8.0 | 0.00 | 0.00 | 0.00 | 21 | |
| 20260505014851 | 16 | 315 | 4.8 | 11.3 | 0.00 | 0.00 | 0.00 | 21 | |
| 20260505014351 | 17 | 251 | 4.8 | 20.9 | 0.00 | 0.00 | 0.00 | 21 | |
| 20260505013851 | 17 | 329 | 6.4 | 35.4 | 0.00 | 0.00 | 0.00 | 20 | |
| 20260505013351 | 17 | 257 | 0.0 | 24.1 | 0.00 | 0.00 | 0.00 | 20 | |
| 20260505012851 | 17 | 206 | 11.3 | 17.7 | 0.00 | 0.00 | 0.00 | 21 | |
| 20260505012351 | 17 | 288 | 3.2 | 22.5 | 0.00 | 0.00 | 0.00 | 21 | |
| 20260505011851 | 17 | 317 | 11.3 | 17.7 | 0.00 | 0.00 | 0.00 | 20 | |
| 20260505011351 | 17 | 315 | 0.0 | 14.5 | 0.00 | 0.00 | 0.00 | 21 | |
| 20260505010851 | 17 | 309 | 0.0 | 17.7 | 0.00 | 0.00 | 0.00 | 22 | |
| 20260505010351 | 17 | 255 | 3.2 | 11.3 | 0.00 | 0.00 | 0.00 | 21 | |
| 20260505005851 | 17 | 310 | 4.8 | 12.9 | 0.00 | 0.00 | 0.00 | 21 | |
| 20260505005351 | 17 | 18 | 0.0 | 9.7 | 0.00 | 0.00 | 0.00 | 22 | |
| 20260505004851 | 17 | 258 | 0.0 | 19.3 | 0.00 | 0.00 | 0.00 | 21 | |
| 20260505004351 | 17 | 347 | 6.4 | 14.5 | 0.00 | 0.00 | 0.00 | 21 | |
| 20260505003851 | 17 | 251 | 3.2 | 19.3 | 0.00 | 0.00 | 0.00 | 21 | |
| 20260505003351 | 17 | 234 | 6.4 | 9.7 | 0.00 | 0.00 | 0.00 | 22 | |
| 20260505002852 | 17 | 226 | 4.8 | 12.9 | 0.00 | 0.00 | 0.00 | 21 | |
| 20260505002351 | 17 | 272 | 4.8 | 24.1 | 0.00 | 0.00 | 0.00 | 22 | |
| 20260505001852 | 17 | 229 | 9.7 | 14.5 | 0.00 | 0.00 | 0.00 | 22 | |
| 20260505001351 | 17 | 260 | 6.4 | 16.1 | 0.00 | 0.00 | 0.00 | 22 | |
| 20260505000851 | 17 | 289 | 9.7 | 22.5 | 0.00 | 0.00 | 0.00 | 22 | |
| 20260505000351 | 17 | 310 | 4.8 | 17.7 | 0.00 | 0.00 | 0.00 | 22 | |
| 20260504235851 | 17 | 233 | 6.4 | 19.3 | 0.00 | 0.00 | 0.00 | 22 | |
| 20260504235351 | 17 | 7 | 4.8 | 14.5 | 0.00 | 0.00 | 0.00 | 21 | |
| 20260504234851 | 17 | 236 | 3.2 | 17.7 | 0.00 | 0.00 | 0.00 | 21 | |
| 20260504234351 | 18 | 267 | 0.0 | 14.5 | 0.00 | 0.00 | 0.00 | 21 | |
| 20260504233851 | 17 | 291 | 6.4 | 19.3 | 0.00 | 0.00 | 0.00 | 21 | |
| 20260504233351 | 17 | 222 | 9.7 | 24.1 | 0.00 | 0.00 | 0.00 | 20 | |
| 20260504232851 | 17 | 282 | 3.2 | 20.9 | 0.00 | 0.00 | 0.00 | 21 | |
| 20260504232351 | 18 | 223 | 14.5 | 20.9 | 0.00 | 0.00 | 0.00 | 20 | |
| 20260504231851 | 17 | 289 | 8.0 | 29.0 | 0.00 | 0.00 | 0.00 | 20 |